Powrót do katalogu

STARLINK-36695

AktywnyŁącznośćSSO
NORAD 67702·PAYLOAD·🇺🇸 United States

Wystrzelony Feb 7, 2026 z Vandenberg Space Force Base

Loading…

Następne Przeloty (najbliższe 24 godziny)

TLE

ŚwieżeSource: CelesTrak SupGP

Epoka: Sep 14, 2026, 14:26 UTC

1 67702C 26025K   26257.60187500  .00065949  00000+0  20490-2 0  2572
2 67702  97.2859   7.6373 0000875  79.3828 340.7978 15.33378161    14

Śledź STARLINK-36695 w czasie rzeczywistym z AllMySat

Download on the App Store